| time (UTC) | temp F | wind direction | speed MPH | gust MPH | rain 1hr in | rain 24hr in | rain mn in | humidity % | barometer mb |
| 20260507134610 | 73 | 236 | 6.0 | 15.0 | 0.00 | 0.00 | 0.00 | 47 | 1010.7 |
| 20260507133108 | 73 | 210 | 3.0 | 11.0 | 0.00 | 0.00 | 0.00 | 47 | 1010.9 |
| 20260507131603 | 71 | 300 | 3.0 | 14.0 | 0.00 | 0.00 | 0.00 | 50 | 1010.9 |
| 20260507124606 | 73 | 330 | 2.0 | 17.0 | 0.00 | 0.00 | 0.00 | 49 | 1011.3 |
| 20260507123100 | 72 | 215 | 11.0 | 17.0 | 0.00 | 0.00 | 0.00 | 47 | 1011.3 |
| 20260507121601 | 72 | 250 | 8.0 | 14.0 | 0.00 | 0.00 | 0.00 | 48 | 1011.4 |
| 20260507120100 | 73 | 266 | 7.0 | 17.0 | 0.00 | 0.00 | 0.00 | 47 | 1011.4 |
| 20260507114559 | 72 | 233 | 4.0 | 16.0 | 0.00 | 0.00 | 0.00 | 48 | 1011.4 |
| 20260507113051 | 72 | 215 | 1.0 | 9.0 | 0.00 | 0.00 | 0.00 | 47 | 1011.6 |
| 20260507111559 | 72 | 204 | 2.0 | 10.0 | 0.00 | 0.00 | 0.00 | 45 | 1011.8 |
| 20260507110017 | 71 | 239 | 3.0 | 11.0 | 0.00 | 0.00 | 0.00 | 45 | 1011.8 |
| 20260507104516 | 71 | 246 | 3.0 | 7.0 | 0.00 | 0.00 | 0.00 | 48 | 1011.9 |
| 20260507103009 | 71 | 229 | 2.0 | 8.0 | 0.00 | 0.00 | 0.00 | 49 | 1012.0 |
| 20260507101512 | 70 | 248 | 0.0 | 12.0 | 0.00 | 0.00 | 0.00 | 50 | 1012.2 |
| 20260507100113 | 69 | 204 | 2.0 | 13.0 | 0.00 | 0.00 | 0.00 | 52 | 1012.3 |
| 20260507094614 | 68 | 231 | 1.0 | 12.0 | 0.00 | 0.00 | 0.00 | 52 | 1012.1 |
| 20260507093103 | 68 | 212 | 3.0 | 7.0 | 0.00 | 0.00 | 0.00 | 53 | 1012.2 |
| 20260507091606 | 68 | 203 | 4.0 | 8.0 | 0.00 | 0.00 | 0.00 | 51 | 1012.3 |
| 20260507090112 | 67 | 134 | 1.0 | 6.0 | 0.00 | 0.00 | 0.00 | 56 | 1012.3 |
| 20260507084601 | 66 | 240 | 1.0 | 5.0 | 0.00 | 0.00 | 0.00 | 60 | 1012.3 |
| 20260507083052 | 64 | 238 | 1.0 | 7.0 | 0.00 | 0.00 | 0.00 | 62 | 1012.3 |
| 20260507081547 | 64 | 240 | 1.0 | 7.0 | 0.00 | 0.00 | 0.00 | 61 | 1012.2 |
| 20260507080012 | 63 | 165 | 1.0 | 5.0 | 0.00 | 0.00 | 0.00 | 62 | 1012.1 |
| 20260507074510 | 63 | 250 | 1.0 | 5.0 | 0.00 | 0.00 | 0.00 | 63 | 1012.0 |
| 20260507073005 | 64 | 212 | 0.0 | 1.0 | 0.00 | 0.00 | 0.00 | 62 | 1012.0 |
| 20260507071502 | 62 | 225 | 0.0 | 2.0 | 0.00 | 0.00 | 0.00 | 62 | 1011.9 |
| 20260507070112 | 59 | 86 | 0.0 | 1.0 | 0.00 | 0.00 | 0.00 | 71 | 1011.7 |
| 20260507064623 | 57 | 86 | 0.0 | 0.0 | 0.00 | 0.00 | 0.00 | 73 | 1011.7 |
| 20260507063101 | 55 | 56 | 0.0 | 0.0 | 0.00 | 0.00 | 0.00 | 77 | 1011.6 |
| 20260507061606 | 54 | 329 | 0.0 | 0.0 | 0.00 | 0.00 | 0.00 | 80 | 1011.5 |
| 20260507060049 | 55 | 356 | 0.0 | 1.0 | 0.00 | 0.00 | 0.00 | 76 | 1011.4 |
| 20260507054544 | 57 | 166 | 0.0 | 0.0 | 0.00 | 0.00 | 0.00 | 70 | 1011.1 |
| 20260507053045 | 56 | 158 | 0.0 | 1.0 | 0.00 | 0.00 | 0.00 | 72 | 1010.9 |
| 20260507051541 | 56 | 146 | 0.0 | 0.0 | 0.00 | 0.00 | 0.00 | 74 | 1010.7 |
| 20260507050011 | 56 | 146 | 0.0 | 1.0 | 0.00 | 0.00 | 0.00 | 74 | 1010.6 |
| 20260507044512 | 56 | 148 | 0.0 | 1.0 | 0.00 | 0.00 | 0.00 | 76 | 1010.4 |
| 20260507043009 | 56 | 143 | 0.0 | 1.0 | 0.00 | 0.00 | 0.00 | 76 | 1010.2 |
| 20260507041531 | 56 | 174 | 0.0 | 1.0 | 0.00 | 0.00 | 0.00 | 77 | 1010.3 |
| 20260507040008 | 57 | 207 | 0.0 | 1.0 | 0.00 | 0.00 | 0.00 | 76 | 1010.4 |
| 20260507034544 | 57 | 198 | 0.0 | 2.0 | 0.00 | 0.00 | 0.00 | 78 | 1010.4 |
| 20260507033118 | 57 | 218 | 0.0 | 3.0 | 0.00 | 0.00 | 0.00 | 78 | 1010.5 |
| 20260507031615 | 57 | 202 | 0.0 | 3.0 | 0.00 | 0.00 | 0.00 | 80 | 1010.3 |
| 20260507030108 | 57 | 224 | 0.0 | 3.0 | 0.00 | 0.00 | 0.00 | 81 | 1010.2 |
| 20260507024615 | 58 | 208 | 0.0 | 3.0 | 0.00 | 0.00 | 0.00 | 80 | 1010.3 |
| 20260507023115 | 58 | 211 | 0.0 | 3.0 | 0.00 | 0.00 | 0.00 | 80 | 1010.3 |
| 20260507021501 | 58 | 207 | 1.0 | 4.0 | 0.00 | 0.00 | 0.00 | 80 | 1010.3 |
| 20260507020110 | 58 | 212 | 1.0 | 4.0 | 0.00 | 0.00 | 0.00 | 81 | 1010.3 |
| 20260507014609 | 58 | 225 | 1.0 | 5.0 | 0.00 | 0.00 | 0.00 | 81 | 1010.5 |
| 20260507013114 | 58 | 214 | 0.0 | 3.0 | 0.00 | 0.00 | 0.00 | 81 | 1010.5 |
| 20260507011600 | 58 | 225 | 0.0 | 4.0 | 0.00 | 0.00 | 0.00 | 81 | 1010.7 |
| 20260507010043 | 58 | 207 | 0.0 | 3.0 | 0.00 | 0.00 | 0.00 | 81 | 1010.9 |
| 20260507004546 | 59 | 221 | 0.0 | 3.0 | 0.00 | 0.00 | 0.00 | 80 | 1011.0 |
| 20260507003037 | 59 | 212 | 0.0 | 4.0 | 0.00 | 0.00 | 0.00 | 80 | 1011.1 |
| 20260507001544 | 59 | 236 | 0.0 | 3.0 | 0.00 | 0.00 | 0.00 | 79 | 1011.1 |
| 20260507000117 | 59 | 243 | 0.0 | 4.0 | 0.00 | 0.00 | 0.00 | 78 | 1011.2 |
| 20260506234615 | 60 | 208 | 0.0 | 5.0 | 0.00 | 0.00 | 0.00 | 77 | 1011.2 |
| 20260506233116 | 60 | 215 | 2.0 | 10.0 | 0.00 | 0.00 | 0.00 | 76 | 1011.2 |
| 20260506231616 | 60 | 236 | 1.0 | 9.0 | 0.00 | 0.00 | 0.00 | 74 | 1011.3 |
| 20260506230113 | 60 | 205 | 0.0 | 4.0 | 0.00 | 0.00 | 0.00 | 73 | 1011.4 |
| 20260506224612 | 60 | 245 | 0.0 | 4.0 | 0.00 | 0.00 | 0.00 | 73 | 1011.4 |
| 20260506223127 | 61 | 229 | 0.0 | 8.0 | 0.00 | 0.00 | 0.00 | 74 | 1011.2 |
| 20260506221604 | 61 | 217 | 1.0 | 5.0 | 0.00 | 0.00 | 0.00 | 72 | 1011.4 |
| 20260506220051 | 61 | 227 | 0.0 | 4.0 | 0.00 | 0.00 | 0.00 | 70 | 1011.3 |
| 20260506214540 | 62 | 228 | 1.0 | 8.0 | 0.00 | 0.00 | 0.00 | 68 | 1011.3 |
| 20260506213005 | 62 | 231 | 1.0 | 9.0 | 0.00 | 0.00 | 0.00 | 67 | 1011.3 |
| 20260506211501 | 63 | 249 | 1.0 | 10.0 | 0.00 | 0.00 | 0.00 | 66 | 1011.2 |
| 20260506210137 | 63 | 232 | 1.0 | 9.0 | 0.00 | 0.00 | 0.00 | 63 | 1011.0 |
| 20260506204606 | 64 | 248 | 1.0 | 9.0 | 0.00 | 0.00 | 0.00 | 61 | 1010.7 |
| 20260506203104 | 65 | 248 | 1.0 | 11.0 | 0.00 | 0.00 | 0.00 | 58 | 1010.6 |
| 20260506201602 | 66 | 252 | 2.0 | 9.0 | 0.00 | 0.00 | 0.00 | 55 | 1010.4 |
| 20260506200137 | 66 | 240 | 1.0 | 8.0 | 0.00 | 0.00 | 0.00 | 54 | 1010.2 |
| 20260506194604 | 67 | 233 | 1.0 | 8.0 | 0.00 | 0.00 | 0.00 | 52 | 1010.0 |
| 20260506193051 | 68 | 214 | 2.0 | 8.0 | 0.00 | 0.00 | 0.00 | 49 | 1009.8 |
| 20260506191550 | 69 | 304 | 2.0 | 10.0 | 0.00 | 0.00 | 0.00 | 46 | 1009.6 |
| 20260506190040 | 71 | 245 | 1.0 | 11.0 | 0.00 | 0.00 | 0.00 | 44 | 1009.4 |
| 20260506184540 | 73 | 238 | 2.0 | 10.0 | 0.00 | 0.00 | 0.00 | 40 | 1009.3 |
| 20260506183009 | 75 | 240 | 0.0 | 3.0 | 0.00 | 0.00 | 0.00 | 33 | 1009.1 |
| 20260506181618 | 77 | 240 | 0.0 | 1.0 | 0.00 | 0.00 | 0.00 | 30 | 1008.9 |
| 20260506180108 | 77 | 242 | 0.0 | 4.0 | 0.00 | 0.00 | 0.00 | 30 | 1009.1 |
| 20260506174609 | 77 | 18 | 0.0 | 5.0 | 0.00 | 0.00 | 0.00 | 30 | 1009.2 |
| 20260506173124 | 77 | 238 | 0.0 | 3.0 | 0.00 | 0.00 | 0.00 | 28 | 1009.2 |
| 20260506171603 | 77 | 242 | 0.0 | 4.0 | 0.00 | 0.00 | 0.00 | 30 | 1009.4 |
| 20260506170057 | 78 | 249 | 0.0 | 6.0 | 0.00 | 0.00 | 0.00 | 29 | 1009.4 |
| 20260506164602 | 77 | 239 | 1.0 | 7.0 | 0.00 | 0.00 | 0.00 | 30 | 1009.5 |
| 20260506163107 | 78 | 56 | 0.0 | 6.0 | 0.00 | 0.00 | 0.00 | 27 | 1009.6 |
| 20260506161559 | 78 | 118 | 2.0 | 6.0 | 0.00 | 0.00 | 0.00 | 27 | 1009.7 |
| 20260506154547 | 78 | 203 | 0.0 | 3.0 | 0.00 | 0.00 | 0.00 | 29 | 1009.9 |
| 20260506153045 | 77 | 337 | 0.0 | 4.0 | 0.00 | 0.00 | 0.00 | 30 | 1010.1 |
| 20260506151546 | 76 | 20 | 0.0 | 2.0 | 0.00 | 0.00 | 0.00 | 32 | 1010.2 |
| 20260506150040 | 77 | 226 | 0.0 | 9.0 | 0.00 | 0.00 | 0.00 | 32 | 1010.5 |
| 20260506144533 | 77 | 256 | 1.0 | 5.0 | 0.00 | 0.00 | 0.00 | 31 | 1010.8 |
| 20260506143024 | 76 | 329 | 0.0 | 5.0 | 0.00 | 0.00 | 0.00 | 33 | 1010.9 |
| 20260506141507 | 76 | 236 | 0.0 | 3.0 | 0.00 | 0.00 | 0.00 | 33 | 1011.1 |
| 20260506140110 | 75 | 228 | 1.0 | 7.0 | 0.00 | 0.00 | 0.00 | 34 | 1011.2 |